Weather reports worldwide

Advertisment
Valdepena, Spain (8351): temperature & dewpoint: 09.08.2020 20:00:00 - 15.08.2020 20:00:00 (CEST)Valdepena, Spain (8351): wind speed & gusts: 09.08.2020 20:00:00 - 15.08.2020 20:00:00 (CEST)Valdepena, Spain (8351): wind direction: 09.08.2020 20:00:00 - 15.08.2020 20:00:00 (CEST)Valdepena, Spain (8351): reduced air pressure: 09.08.2020 20:00:00 - 15.08.2020 20:00:00 (CEST)Valdepena, Spain (8351): visibility: 09.08.2020 20:00:00 - 15.08.2020 20:00:00 (CEST)Valdepena, Spain (8351): sunshine duration: 09.08.2020 20:00:00 - 15.08.2020 20:00:00 (CEST)Valdepena, Spain (8351): precipitation: 09.08.2020 20:00:00 - 15.08.2020 20:00:00 (CEST)
Date & Time tt [°C] td [°C] ff [km/h] ff [kn] fx [km/h] fx [kn] dd ppp [hPa] vv [km] sd [min] rr [mm]
15.08.2020 20:00:00 28,7 1,3 6 4 26 14 W 1009,5 20 12 -
15.08.2020 19:00:00 29,8 0,4 7 4 24 13 WSW 1008,9 20 10 0,0
15.08.2020 18:00:00 30,7 0,2 6 3 24 13 WSW 1008,8 20 59 0,0
15.08.2020 17:00:00 31,3 -1,4 9 5 28 15 WSW 1009,0 20 60 0,0
15.08.2020 16:00:00 31,1 0,4 5 3 30 16 SW 1009,7 20 60 0,0
15.08.2020 15:00:00 30,2 -0,3 6 3 23 13 SW 1010,5 20 60 0,0
15.08.2020 14:00:00 29,9 0,4 6 4 24 13 SW 1010,8 20 60 -
15.08.2020 13:00:00 28,2 3,0 5 3 21 11 SW 1011,7 20 60 0,0
15.08.2020 12:00:00 27,0 4,6 5 3 17 9 SW 1012,4 20 60 0,0
15.08.2020 11:00:00 25,1 5,3 3 2 12 7 WSW 1012,8 20 60 0,0
15.08.2020 10:00:00 22,5 4,5 5 3 11 6 SSW 1013,6 20 26 0,0
15.08.2020 09:00:00 19,9 4,3 5 3 9 5 S 1014,3 20 17 0,0
15.08.2020 08:00:00 17,8 5,0 3 1 7 4 ESE 1014,5 20 0 -
15.08.2020 07:00:00 17,4 5,3 4 2 8 4 SE 1014,2 20 0 0,0
15.08.2020 06:00:00 18,7 5,1 3 2 6 4 SSE 1013,6 20 0 0,0
15.08.2020 05:00:00 19,8 5,5 5 3 10 5 SSE 1013,3 20 0 0,0
15.08.2020 04:00:00 20,8 4,8 5 3 10 5 SE 1013,1 20 0 0,0
15.08.2020 03:00:00 21,6 5,1 6 3 9 5 SSE 1013,0 20 0 0,0
15.08.2020 02:00:00 22,3 4,3 3 2 8 4 ESE 1012,9 20 0 -
15.08.2020 01:00:00 22,9 3,9 3 1 6 4 SSE 1012,7 20 0 0,0
15.08.2020 00:00:00 24,1 2,3 4 2 8 4 SSE 1012,2 20 0 0,0
14.08.2020 23:00:00 25,4 2,1 3 2 9 5 ESE 1011,8 20 0 0,0
14.08.2020 22:00:00 27,3 3,8 3 2 8 4 ESE 1010,6 20 0 0,0
14.08.2020 21:00:00 30,2 2,5 2 1 16 8 SW 1009,0 20 2 0,0
14.08.2020 20:00:00 32,0 0,2 6 3 25 13 SSW 1008,1 20 6 -
14.08.2020 19:00:00 32,3 0,4 7 4 25 14 SW 1008,1 20 12 0,0
14.08.2020 18:00:00 32,9 1,9 13 7 25 14 S 1008,1 20 60 0,0
14.08.2020 17:00:00 33,3 1,1 10 5 29 16 S 1008,4 20 60 0,0
14.08.2020 16:00:00 33,1 2,1 12 6 25 13 S 1008,9 20 60 0,0
14.08.2020 15:00:00 32,2 2,3 8 4 27 15 SW 1009,7 20 60 0,0
14.08.2020 14:00:00 32,1 4,8 4 2 22 12 ENE 1009,9 20 60 -
14.08.2020 13:00:00 30,7 2,9 8 4 18 10 SE 1010,8 20 60 0,0
14.08.2020 12:00:00 28,8 5,6 6 3 12 7 S 1011,7 20 60 0,0
14.08.2020 11:00:00 26,1 7,7 3 1 11 6 WNW 1012,4 20 60 0,0
14.08.2020 10:00:00 23,2 9,6 6 3 12 6 SSE 1013,1 20 28 0,0
14.08.2020 09:00:00 18,5 7,6 1 1 8 4 N 1014,6 20 18 0,0
14.08.2020 08:00:00 16,4 6,2 4 2 9 5 NNE 1015,0 20 0 -
14.08.2020 07:00:00 16,7 5,9 3 1 8 4 N 1014,6 20 0 0,0
14.08.2020 06:00:00 17,6 6,7 4 2 10 6 N 1014,2 20 0 0,0
14.08.2020 05:00:00 18,6 6,4 1 1 11 6 N 1013,9 20 0 0,0
14.08.2020 04:00:00 19,1 7,8 3 2 7 4 N 1014,0 20 0 0,0
14.08.2020 03:00:00 20,4 7,7 2 1 6 3 NNE 1014,0 20 0 0,0
14.08.2020 02:00:00 21,1 8,0 0 0 4 2 N 1014,4 20 0 -
14.08.2020 01:00:00 22,5 8,3 1 1 6 3 E 1014,0 20 0 0,0
14.08.2020 00:00:00 23,9 7,6 3 2 6 3 N 1013,6 20 0 0,0
13.08.2020 23:00:00 25,3 7,0 2 1 9 5 N 1013,2 20 0 0,0
13.08.2020 22:00:00 27,5 6,2 2 1 14 8 N 1012,0 20 0 0,0
13.08.2020 21:00:00 29,3 6,1 6 4 19 11 NNW 1010,7 20 0 0,0
13.08.2020 20:00:00 31,2 2,5 5 3 18 10 WNW 1009,7 20 3 -
13.08.2020 19:00:00 31,2 4,1 5 3 17 9 WNW 1009,8 20 12 0,0
13.08.2020 18:00:00 31,2 4,8 5 3 18 10 N 1009,8 20 58 0,0
13.08.2020 17:00:00 31,6 5,9 5 3 17 9 WNW 1010,0 20 59 0,0
13.08.2020 16:00:00 31,1 6,2 5 3 16 9 W 1010,9 20 60 0,0
13.08.2020 15:00:00 30,5 5,0 5 3 19 10 S 1011,7 20 60 0,0
13.08.2020 14:00:00 29,4 6,1 5 3 16 8 E 1012,5 20 60 -
13.08.2020 13:00:00 28,5 8,3 4 2 14 7 WSW 1013,1 20 60 0,0
13.08.2020 12:00:00 27,1 9,4 3 2 9 5 SSE 1013,9 20 60 0,0
13.08.2020 11:00:00 25,3 11,1 3 2 9 5 NNE 1014,0 20 60 0,0
13.08.2020 10:00:00 22,3 12,2 2 1 9 5 NNE 1014,7 20 35 0,0
13.08.2020 09:00:00 17,5 11,8 3 2 8 4 NNE 1015,8 20 16 0,0
13.08.2020 08:00:00 15,2 10,8 3 2 10 6 NNE 1016,3 20 0 -
13.08.2020 07:00:00 15,3 10,3 2 1 6 4 N 1015,7 20 0 0,0
13.08.2020 06:00:00 15,7 9,8 3 2 8 4 N 1015,6 20 0 0,0
13.08.2020 05:00:00 16,6 9,3 2 1 7 4 N 1015,5 20 0 0,0
13.08.2020 04:00:00 17,6 8,4 3 1 6 3 N 1015,3 20 0 0,0
13.08.2020 03:00:00 18,6 8,0 1 1 6 3 NE 1015,3 20 0 0,0
13.08.2020 02:00:00 19,5 6,5 3 2 7 4 SE 1015,1 20 0 -
13.08.2020 01:00:00 20,7 4,3 5 3 8 5 SE 1014,8 20 0 0,0
13.08.2020 00:00:00 21,5 3,6 3 2 10 6 ESE 1014,4 20 0 0,0
12.08.2020 23:00:00 22,4 2,5 1 1 7 4 SE 1013,8 20 0 0,0
12.08.2020 22:00:00 23,6 2,5 5 3 13 7 SE 1012,7 20 0 0,0
12.08.2020 21:00:00 26,6 1,7 7 4 25 13 S 1011,3 20 2 0,0
12.08.2020 20:00:00 28,5 1,9 10 5 25 13 SSW 1010,1 20 5 -
12.08.2020 19:00:00 29,5 0,2 13 7 30 16 S 1009,8 20 18 0,0
12.08.2020 18:00:00 29,8 1,3 17 9 30 16 S 1009,9 20 60 0,0
12.08.2020 17:00:00 30,0 3,8 16 9 33 18 S 1009,9 20 60 0,0
12.08.2020 16:00:00 29,6 5,0 14 7 32 17 SSW 1010,5 20 58 0,0
12.08.2020 15:00:00 29,0 8,1 11 6 24 13 S 1011,1 20 53 0,0
12.08.2020 14:00:00 27,3 12,1 11 6 22 12 SSW 1011,9 20 40 -
12.08.2020 13:00:00 26,6 14,3 8 4 16 9 S 1012,4 20 51 0,0
12.08.2020 12:00:00 24,9 14,3 4 2 11 6 SSE 1013,2 20 60 0,0
12.08.2020 11:00:00 23,0 14,8 4 2 9 5 S 1013,3 20 60 0,0
12.08.2020 10:00:00 20,3 14,9 3 1 8 4 E 1013,9 20 30 0,0
12.08.2020 09:00:00 16,7 13,8 3 1 8 5 NE 1014,6 20 13 0,0
12.08.2020 08:00:00 15,2 13,1 2 1 11 6 NNE 1014,6 17 0 -
12.08.2020 07:00:00 15,3 13,2 5 3 13 7 N 1014,3 20 0 0,0
12.08.2020 06:00:00 15,3 13,4 3 2 6 4 N 1013,8 20 0 0,0
12.08.2020 05:00:00 15,5 13,2 1 1 7 4 W 1014,0 20 0 0,0
12.08.2020 04:00:00 15,8 13,5 2 1 8 5 ENE 1013,4 20 0 0,0
12.08.2020 03:00:00 15,9 13,8 3 2 11 6 ENE 1013,5 20 0 0,0
12.08.2020 02:00:00 16,6 14,2 4 2 18 10 S 1013,9 20 0 -
12.08.2020 01:00:00 16,7 14,5 5 3 17 9 E 1014,2 13 0 0,0
12.08.2020 00:00:00 17,3 14,7 6 4 31 17 WNW 1016,2 20 0 0,0
11.08.2020 23:00:00 17,1 14,7 7 4 29 16 ENE 1014,5 20 0 0,0
11.08.2020 22:00:00 17,1 14,7 13 7 24 13 ENE 1014,3 20 0 5,6
11.08.2020 21:00:00 18,8 13,9 13 7 34 19 N 1012,7 20 0 0,0
11.08.2020 20:00:00 19,9 14,5 10 5 28 15 NW 1012,7 20 0 -
11.08.2020 19:00:00 20,4 15,8 14 8 39 21 NW 1010,5 20 0 0,4
11.08.2020 18:00:00 23,3 16,1 11 6 34 18 WNW 1009,7 20 0 0,0
11.08.2020 17:00:00 26,6 14,3 12 7 37 20 NNW 1007,6 20 36 0,0
11.08.2020 16:00:00 31,0 9,3 8 5 24 13 W 1006,3 20 23 0,0
11.08.2020 15:00:00 33,2 5,6 5 3 29 16 WSW 1006,3 20 41 0,0
11.08.2020 14:00:00 33,0 5,5 11 6 27 14 SSE 1007,0 20 33 -
11.08.2020 13:00:00 30,0 7,8 8 4 24 13 SE 1008,0 20 22 0,0
11.08.2020 12:00:00 26,8 12,1 7 4 17 9 ENE 1009,4 20 6 0,0
11.08.2020 11:00:00 23,8 14,5 6 4 14 7 SSE 1010,6 20 19 0,0
11.08.2020 10:00:00 21,1 14,2 4 2 15 8 WNW 1011,9 20 0 0,0
11.08.2020 09:00:00 21,6 10,4 6 3 18 10 NE 1010,8 20 0 0,0
11.08.2020 08:00:00 19,4 11,4 9 5 17 9 NNE 1011,2 20 0 -
11.08.2020 07:00:00 20,0 11,2 4 2 11 6 NNE 1011,2 20 0 0,0
11.08.2020 06:00:00 21,0 12,1 4 2 11 6 NNE 1010,8 20 0 0,0
11.08.2020 05:00:00 21,6 12,4 4 2 12 6 N 1010,6 20 0 0,0
11.08.2020 04:00:00 23,1 11,8 3 1 9 5 ESE 1010,7 20 0 0,0
11.08.2020 03:00:00 23,9 10,9 3 1 14 8 E 1010,6 20 0 0,0
11.08.2020 02:00:00 23,9 10,5 3 2 10 6 SE 1010,8 20 0 -
11.08.2020 01:00:00 23,8 11,1 2 1 9 5 SSW 1010,5 20 0 0,0
11.08.2020 00:00:00 25,2 11,0 2 1 11 6 SSE 1010,0 20 0 0,0
10.08.2020 23:00:00 26,3 9,6 5 3 19 10 ENE 1009,5 20 0 0,0
10.08.2020 22:00:00 27,7 8,0 8 4 22 12 ENE 1008,7 20 0 0,0
10.08.2020 21:00:00 28,7 8,9 6 4 17 9 E 1007,7 20 0 0,0
10.08.2020 20:00:00 30,8 8,5 9 5 33 18 E 1006,8 20 1 -
10.08.2020 19:00:00 30,8 9,0 14 8 31 17 ENE 1007,1 20 10 0,0
10.08.2020 18:00:00 31,2 9,4 16 9 36 19 E 1007,6 20 59 0,0
10.08.2020 17:00:00 31,7 7,4 8 5 29 16 SE 1007,4 20 47 0,0
10.08.2020 16:00:00 27,0 12,6 8 5 32 18 ENE 1009,8 20 0 0,0
10.08.2020 15:00:00 23,3 15,6 10 5 23 13 NE 1012,2 20 0 0,0
10.08.2020 14:00:00 23,1 11,4 5 3 18 10 NE 1013,0 20 0 -
10.08.2020 13:00:00 21,5 16,9 3 2 13 7 NNE 1014,1 14 0 2,2
10.08.2020 12:00:00 22,9 15,3 5 3 24 13 NNW 1012,8 15 0 0,6
10.08.2020 11:00:00 26,7 10,4 6 3 14 8 WNW 1011,3 15 0 0,0
10.08.2020 10:00:00 27,7 10,9 3 2 14 8 WSW 1010,9 20 1 0,0
10.08.2020 09:00:00 27,0 13,0 8 4 14 8 SSE 1010,1 20 0 0,0
10.08.2020 08:00:00 25,3 9,9 2 1 7 4 N 1009,7 20 0 -
10.08.2020 07:00:00 25,0 7,6 2 1 7 4 N 1009,9 20 0 0,0
10.08.2020 06:00:00 26,2 6,7 2 1 11 6 SW 1009,6 20 0 0,0
10.08.2020 05:00:00 26,6 6,1 1 1 9 5 NW 1009,7 19 0 0,0
10.08.2020 04:00:00 27,0 5,8 4 2 9 5 SE 1009,7 20 0 0,0
10.08.2020 03:00:00 27,7 5,9 4 2 12 6 SSE 1009,9 16 0 0,0
10.08.2020 02:00:00 28,6 5,5 6 3 14 7 SSE 1010,0 16 0 -
10.08.2020 01:00:00 30,1 5,3 8 4 19 10 S 1009,7 14 0 0,0
10.08.2020 00:00:00 30,8 5,3 8 4 16 9 SSE 1009,6 15 0 0,0
09.08.2020 23:00:00 31,4 5,0 5 3 13 7 SSE 1009,7 12 0 0,0
09.08.2020 22:00:00 32,6 4,3 8 4 14 8 SSE 1008,7 10 0 0,0
09.08.2020 21:00:00 35,3 4,8 9 5 24 13 S 1007,7 11 0 0,0
09.08.2020 20:00:00 37,0 3,9 12 6 28 15 S 1006,9 12 0 -

tt = temperature
td = dewpoint
ff = wind speed
fx = gusts
dd = wind direction
ppp = reduced air pressure
vv = visibility
sd = sunshine duration
rr = precipitation

Next stations